Location: Unspecified
(0.0000°N, 0.0000°E)
Time: 04:36:12
(UTC-07:00)

Envisat - Visible Passes

Search period start: 22 July 2019 00:00
Search period end: 01 August 2019 00:00
Orbit: 764 x 766 km, 98.1° (Epoch: 22 July)

Date Brightness Start Highest point End Pass type
(mag) Time Alt. Az. Time Alt. Az. Time Alt. Az.
22 Jul 5.4 12:40:08 10° SSW 12:43:47 20° WSW 12:47:25 10° NW visible
23 Jul 3.7 12:02:10 10° S 12:07:08 57° WSW 12:12:06 10° NNW visible
24 Jul 3.3 11:25:34 10° SSE 11:30:29 49° ENE 11:35:21 10° N visible
25 Jul 5.0 12:28:20 10° SSW 12:32:34 27° WSW 12:36:48 10° NW visible
26 Jul 3.2 11:50:51 10° S 11:55:55 78° WSW 12:00:58 10° NNW visible
27 Jul 5.8 12:55:48 10° SW 12:57:59 13° WSW 13:00:11 10° WNW visible
28 Jul 4.5 12:16:43 10° SSW 12:21:22 36° WSW 12:26:00 10° NW visible
29 Jul 3.0 11:39:38 10° SSE 11:44:43 77° ENE 11:49:46 10° N visible
29 Jul 6.2 22:36:00 10° E 22:36:58 11° ESE 22:37:57 10° ESE visible
30 Jul 5.6 12:43:27 10° SW 12:46:48 18° WSW 12:50:07 10° WNW visible
31 Jul 3.9 12:05:15 10° S 12:10:09 50° WSW 12:15:02 10° NNW visible
